This demonstration page uses our WeatherBlox Daily Observations layout. Learn more.

Left ArrowRight Arrow

Hourly Observations for February 20, 2015

Temp ( °F °C ) Dew Point ( °F °C ) Humidity (%) Winds ( mph kmh ) Pressure ( in mb ) Visibility ( mi km ) Precip ( " mm )
12:51 am 00:51 Clear 50 10 24 -4.4 36 36 ESE 7 11 29.93 1014 10 16 0.00 0.00
1:51 am 01:51 Clear 49 9.4 23 -5 36 36 E 7 11 29.93 1014 10 16 0.00 0.00
2:51 am 02:51 Clear 50 10 23 -5 35 35 E 5 7 29.91 1013 10 16 0.00 0.00
3:51 am 03:51 Clear 46 7.8 24 -4.4 42 42 NE 6 9 29.92 1013 10 16 0.00 0.00
4:51 am 04:51 Clear 44 6.7 23 -5 43 43 S 3 6 29.91 1013 10 16 0.00 0.00
5:51 am 05:51 Clear 44 6.7 23 -5 43 43 E 5 7 29.92 1013 10 16 0.00 0.00
6:51 am 06:51 Clear 42 5.6 24 -4.4 49 49 ESE 5 7 29.94 1014 10 16 0.00 0.00
7:51 am 07:51 Sunny 46 7.8 24 -4.4 42 42 E 3 6 29.96 1015 10 16 0.00 0.00
8:51 am 08:51 Sunny 50 10 25 -3.9 38 38 Calm 29.98 1015 10 16 0.00 0.00
9:51 am 09:51 Sunny 53 11.7 27 -2.8 37 37 Calm 29.98 1015 10 16 0.00 0.00
10:51 am 10:51 Sunny 59 15 23 -5 25 25 Calm 29.95 1014 10 16 0.00 0.00
11:51 am 11:51 Sunny 63 17.2 25 -3.9 24 24 VRB 3 6 29.92 1013 10 16 0.00 0.00
12:51 pm 12:51 Sunny 66 18.9 24 -4.4 20 20 VRB 6 9 29.88 1012 10 16 0.00 0.00
1:51 pm 13:51 Sunny 68 20 24 -4.4 19 19 W 7 11 29.85 1011 10 16 0.00 0.00
2:51 pm 14:51 Sunny 72 22.2 24 -4.4 17 17 WNW 12 19 29.81 1010 10 16 0.00 0.00
3:51 pm 15:51 Sunny 72 22.2 23 -5 16 16 WNW 12 19 29.81 1009 10 16 0.00 0.00
4:51 pm 16:51 Sunny 71 21.7 23 -5 16 16 WNW 16 26 29.81 1009 10 16 0.00 0.00
5:51 pm 17:51 Sunny 68 20 25 -3.9 20 20 WNW 14 22 29.82 1010 10 16 0.00 0.00
6:51 pm 18:51 Clear 65 18.3 26 -3.3 23 23 NW 10 17 29.83 1010 10 16 0.00 0.00
7:51 pm 19:51 Clear 65 18.3 26 -3.3 23 23 NNW 13 20 29.83 1010 10 16 0.00 0.00
8:51 pm 20:51 Clear 65 18.3 25 -3.9 22 22 NNW 18 30 29.83 1010 10 16 0.00 0.00
9:51 pm 21:51 Clear 65 18.3 25 -3.9 22 22 NNW 16 26 29.83 1010 10 16 0.00 0.00
10:51 pm 22:51 Clear 64 17.8 25 -3.9 23 23 NNW 14 22 29.83 1010 10 16 0.00 0.00
11:51 pm 23:51 Clear 62 16.7 26 -3.3 25 25 W 6 9 29.84 1010 10 16 0.00 0.00

Powered by AerisWeather